period_start,C,m1,H,J0,J1,J2,J3,J4,J5,JA,JB,JC,JD,JJ,JK,JN,#
2014-11-21 00:02:34,0.13,3.66,0.00,23.55,27.80,30.65,4.80,26.51,1022.86,2027.13,2194.79,2414.23,2617.73,349.94,349.09,26.25,0000 0000 0000 0000 000000
2014-11-21 00:07:35,0.06,3.66,0.00,23.56,27.80,30.62,4.70,26.38,1022.87,2027.14,2193.91,2413.83,2617.00,349.31,348.59,26.28,0000 0000 0000 0000 000000
2014-11-21 00:12:36,0.13,3.67,0.00,23.56,27.80,30.63,4.79,26.31,1022.94,2027.16,2193.04,2413.06,2616.31,350.28,349.36,26.31,0000 0000 0000 0000 000000
2014-11-21 00:17:38,0.14,3.67,0.00,23.54,27.81,30.64,4.84,26.52,1022.92,2027.20,2192.21,2412.51,2615.88,350.05,349.21,26.34,0000 0000 0000 0000 000000
2014-11-21 00:22:39,0.11,3.68,0.00,23.55,27.82,30.66,4.88,26.52,1022.94,2027.38,2191.43,2411.99,2615.10,350.42,349.58,26.37,0000 0000 0000 0000 000000
2014-11-21 00:27:40,0.06,3.68,0.00,23.56,27.82,30.66,4.87,26.39,1022.93,2027.15,2190.84,2411.25,2614.42,350.17,349.27,26.40,0000 0000 0000 0000 000000
2014-11-21 00:32:41,0.08,3.68,0.00,23.55,27.82,30.64,4.83,26.38,1022.79,2027.18,2190.03,2410.92,2613.95,350.15,349.25,26.43,0000 0000 0000 0000 000000
2014-11-21 00:37:42,0.12,3.68,0.00,23.55,27.82,30.66,4.92,26.53,1022.71,2027.11,2189.19,2410.09,2613.12,350.65,349.69,26.46,0000 0000 0000 0000 000000
2014-11-21 00:42:44,0.11,3.69,0.00,23.54,27.82,30.63,4.81,26.45,1022.64,2027.10,2188.43,2409.68,2612.59,350.26,349.26,26.48,0000 0000 0000 0000 000000
2014-11-21 00:47:45,0.07,3.69,0.00,23.56,27.82,30.68,4.84,26.42,1022.55,2027.07,2187.58,2409.01,2612.00,350.23,349.73,26.51,0000 0000 0000 0000 000000
2014-11-21 00:52:46,0.14,3.69,0.00,23.58,27.83,30.69,4.74,26.44,1022.57,2027.06,2186.74,2408.27,2611.21,349.92,349.17,26.54,0000 0000 0000 0000 000000
2014-11-21 00:57:48,0.06,3.70,0.00,23.58,27.84,30.68,4.82,26.52,1022.70,2027.07,2185.97,2407.89,2610.69,350.14,349.23,26.57,0000 0000 0000 0000 000000
2014-11-21 01:02:49,0.12,3.70,0.00,23.58,27.85,30.67,4.82,26.40,1022.64,2027.08,2185.13,2407.12,2610.04,349.85,348.77,26.60,0000 0000 0000 0000 000000
2014-11-21 01:07:50,0.13,3.70,0.00,23.57,27.85,30.66,4.88,26.48,1022.54,2027.08,2184.28,2406.65,2609.35,350.76,349.55,26.63,0000 0000 0000 0000 000000
2014-11-21 01:12:51,0.09,3.71,0.00,23.59,27.85,30.70,4.68,26.29,1022.66,2027.05,2183.44,2406.00,2608.76,349.94,348.96,26.66,0000 0000 0000 0000 000000
2014-11-21 01:17:53,0.12,3.71,0.00,23.59,27.85,30.66,4.88,26.47,1022.81,2027.05,2182.70,2405.29,2608.03,350.44,349.44,26.69,0000 0000 0000 0000 000000
2014-11-21 01:22:54,0.09,3.71,0.00,23.58,27.85,30.65,4.78,26.41,1022.74,2027.05,2181.88,2404.86,2607.32,349.94,349.02,26.72,0000 0000 0000 0000 000000
2014-11-21 01:27:55,0.12,3.72,0.00,23.60,27.86,30.64,4.72,26.35,1022.81,2027.06,2180.97,2404.06,2606.73,349.39,348.52,26.75,0000 0000 0000 0000 000000
2014-11-21 01:32:56,0.12,3.72,0.00,23.61,27.87,30.63,4.75,26.34,1022.93,2027.05,2180.04,2403.37,2605.99,350.27,349.46,26.78,0000 0000 0000 0000 000000
2014-11-21 01:37:57,0.12,3.72,0.00,23.62,27.87,30.61,4.75,26.24,1022.95,2027.01,2179.01,2402.74,2605.13,349.90,348.99,26.81,0000 0000 0000 0000 000000
2014-11-21 01:42:59,0.12,3.73,0.00,23.61,27.87,30.57,4.79,26.25,1022.95,2027.02,2178.04,2402.02,2604.41,349.66,348.80,26.84,0000 0000 0000 0000 000000
2014-11-21 01:48:00,0.13,3.73,0.00,23.61,27.87,30.67,4.92,26.35,1022.96,2027.04,2177.20,2401.33,2603.84,350.09,349.33,26.87,0000 0000 0000 0000 000000
2014-11-21 01:53:01,0.11,3.73,0.00,23.60,27.90,30.63,4.83,26.25,1022.96,2027.02,2176.26,2400.70,2603.04,350.30,349.47,26.89,0000 0000 0000 0000 000000
2014-11-21 01:58:03,0.13,3.74,0.00,23.61,27.90,30.63,4.78,26.43,1022.96,2027.04,2175.14,2399.97,2602.30,349.91,349.05,26.92,0000 0000 0000 0000 000000
2014-11-21 02:03:04,0.14,3.74,0.00,23.62,27.90,30.61,4.87,26.33,1022.95,2027.02,2174.18,2399.13,2601.42,350.37,349.36,26.95,0000 0000 0000 0000 000000
2014-11-21 02:08:05,0.14,3.75,0.00,23.61,27.91,30.62,4.79,26.39,1022.92,2027.01,2173.20,2398.34,2600.66,350.32,349.14,26.98,0000 0000 0000 0000 000000
2014-11-21 02:13:06,0.11,3.75,0.00,23.63,27.92,30.61,4.80,26.44,1022.90,2027.03,2172.32,2397.74,2599.91,349.71,349.01,27.01,0000 0000 0000 0000 000000
2014-11-21 02:18:08,0.12,3.75,0.00,23.66,27.92,30.61,4.71,26.23,1022.96,2027.01,2171.28,2396.97,2599.06,349.22,348.30,27.04,0000 0000 0000 0000 000000
2014-11-21 02:23:09,0.16,3.76,0.00,23.64,27.93,30.60,4.77,26.27,1022.96,2027.00,2170.18,2396.10,2598.16,349.50,348.59,27.07,0000 0000 0000 0000 000000
2014-11-21 02:28:10,0.16,3.76,0.00,23.64,27.95,30.67,4.79,26.34,1022.96,2027.00,2169.07,2395.31,2597.33,350.03,349.09,27.10,0000 0000 0000 0000 000000
2014-11-21 02:33:11,0.13,3.77,0.00,23.66,27.95,30.66,4.74,26.32,1022.96,2027.00,2168.04,2394.60,2596.60,350.15,349.17,27.13,0000 0000 0000 0000 000000
2014-11-21 02:38:12,0.12,3.77,0.00,23.66,27.95,30.70,4.74,26.41,1022.96,2027.00,2166.99,2393.86,2595.79,350.14,349.26,27.16,0000 0000 0000 0000 000000
2014-11-21 02:43:14,0.12,3.78,0.00,23.69,27.97,30.65,4.83,26.31,1022.96,2027.00,2165.97,2393.05,2594.94,350.17,348.92,27.19,0000 0000 0000 0000 000000
2014-11-21 02:48:15,0.15,3.78,0.00,23.72,27.97,30.71,4.73,26.33,1022.96,2027.00,2165.01,2392.23,2594.08,349.85,348.84,27.22,0000 0000 0000 0000 000000
2014-11-21 02:53:16,0.14,3.78,0.00,23.72,27.99,30.72,4.86,26.45,1022.96,2027.00,2164.03,2391.55,2593.19,349.91,349.10,27.25,0000 0000 0000 0000 000000
2014-11-21 02:58:18,0.15,3.79,0.00,23.74,28.00,30.69,4.82,26.33,1022.96,2026.99,2162.91,2390.69,2592.29,349.90,348.88,27.28,0000 0000 0000 0000 000000
2014-11-21 03:03:19,0.14,3.79,0.00,23.76,28.00,30.67,4.80,26.43,1022.96,2026.99,2161.76,2389.90,2591.35,350.20,349.19,27.30,0000 0000 0000 0000 000000
2014-11-21 03:08:20,0.15,3.80,0.00,23.77,28.02,30.70,4.87,26.48,1022.97,2026.99,2160.68,2389.03,2590.49,349.96,348.98,27.33,0000 0000 0000 0000 000000
2014-11-21 03:13:22,0.17,3.80,0.00,23.77,28.02,30.76,4.88,26.44,1022.97,2026.99,2159.50,2388.15,2589.57,350.25,349.28,27.36,0000 0000 0000 0000 000000
2014-11-21 03:18:23,0.16,3.81,0.00,23.77,28.02,30.78,4.82,26.43,1022.98,2026.98,2158.30,2387.25,2588.61,350.39,349.34,27.39,0000 0000 0000 0000 000000
2014-11-21 03:23:24,0.15,3.81,0.00,23.77,28.04,30.76,4.81,26.40,1022.99,2026.98,2157.09,2386.46,2587.75,349.85,348.81,27.42,0000 0000 0000 0000 000000
2014-11-21 03:28:25,0.17,3.82,0.00,23.80,28.05,30.82,4.79,26.43,1022.98,2026.98,2155.91,2385.51,2586.71,350.54,349.43,27.45,0000 0000 0000 0000 000000
2014-11-21 03:33:26,0.17,3.82,0.00,23.80,28.05,30.81,4.81,26.33,1022.97,2026.95,2154.67,2384.62,2585.69,349.78,348.91,27.48,0000 0000 0000 0000 000000
2014-11-21 03:38:27,0.14,3.83,0.00,23.82,28.06,30.82,4.81,26.38,1022.98,2026.87,2153.47,2383.69,2584.65,349.87,348.77,27.51,0000 0000 0000 0000 000000
2014-11-21 03:43:29,0.17,3.83,0.00,23.84,28.07,30.85,4.85,26.65,1022.96,2026.86,2152.15,2382.77,2583.72,349.84,348.71,27.54,0000 0000 0000 0000 000000
2014-11-21 03:48:30,0.19,3.84,0.00,23.84,28.07,30.80,4.75,26.57,1022.97,2026.90,2150.81,2381.79,2582.66,349.96,348.88,27.57,0000 0000 0000 0000 000000
2014-11-21 03:53:31,0.19,3.84,0.00,23.82,28.08,30.84,4.78,26.44,1023.00,2026.89,2149.54,2380.81,2581.60,350.17,349.16,27.60,0000 0000 0000 0000 000000
2014-11-21 03:58:33,0.17,3.85,0.00,23.82,28.10,30.88,4.85,26.52,1023.22,2026.72,2148.03,2379.73,2580.44,349.94,348.91,27.63,0000 0000 0000 0000 000000
2014-11-21 04:03:34,0.19,3.85,0.00,23.83,28.10,30.95,4.78,26.63,1023.44,2026.62,2146.55,2378.64,2579.23,350.09,349.08,27.66,0000 0000 0000 0000 000000
2014-11-21 04:08:35,0.15,3.86,0.00,23.81,28.10,30.89,4.85,26.52,1023.42,2026.51,2145.12,2377.54,2578.02,350.11,349.11,27.69,0000 0000 0000 0000 000000
2014-11-21 04:13:37,0.14,3.86,0.00,23.81,28.10,30.89,4.76,26.45,1023.33,2026.29,2143.80,2376.49,2576.90,349.81,348.74,27.72,0000 0000 0000 0000 000000
2014-11-21 04:18:37,0.23,3.87,0.00,23.82,28.11,30.93,4.81,26.49,1023.27,2026.32,2142.45,2375.52,2575.79,350.01,349.00,27.74,0000 0000 0000 0000 000000
2014-11-21 04:23:39,0.17,3.87,0.00,23.81,28.12,30.97,4.77,26.45,1023.39,2026.33,2141.04,2374.51,2574.71,349.91,348.96,27.77,0000 0000 0000 0000 000000
2014-11-21 04:28:40,0.21,3.88,0.00,23.81,28.12,30.96,4.75,26.43,1023.44,2026.39,2139.70,2373.51,2573.67,349.27,348.22,27.80,0000 0000 0000 0000 000000
2014-11-21 04:33:41,0.16,3.88,0.00,23.82,28.12,31.00,4.83,26.43,1023.45,2026.28,2138.38,2372.55,2572.59,349.79,348.82,27.83,0000 0000 0000 0000 000000
2014-11-21 04:38:43,0.14,3.89,0.00,23.82,28.12,31.02,4.72,26.42,1023.45,2026.11,2136.93,2371.48,2571.46,349.91,348.97,27.86,0000 0000 0000 0000 000000
2014-11-21 04:43:44,0.17,3.89,0.00,23.82,28.12,30.98,4.80,26.40,1023.45,2026.08,2135.76,2370.59,2570.43,349.66,348.72,27.89,0000 0000 0000 0000 000000
2014-11-21 04:48:45,0.16,3.90,0.00,23.84,28.13,30.97,4.79,26.34,1023.42,2026.08,2134.59,2369.71,2569.45,349.70,348.99,27.92,0000 0000 0000 0000 000000
2014-11-21 04:53:46,0.15,3.90,0.00,23.85,28.14,31.00,4.79,26.42,1023.37,2026.06,2133.42,2368.80,2568.48,350.41,349.23,27.95,0000 0000 0000 0000 000000
2014-11-21 04:58:47,0.14,3.91,0.00,23.86,28.15,30.97,4.86,26.47,1023.26,2026.05,2132.26,2367.90,2567.47,350.55,349.41,27.98,0000 0000 0000 0000 000000
2014-11-21 05:03:48,0.16,3.91,0.00,23.84,28.15,30.98,4.79,26.47,1023.42,2026.05,2130.99,2367.05,2566.55,349.91,348.87,28.01,0000 0000 0000 0000 000000
2014-11-21 05:08:50,0.19,3.92,0.00,23.87,28.15,31.01,4.86,26.47,1023.45,2026.03,2129.69,2366.24,2565.52,350.31,349.26,28.04,0000 0000 0000 0000 000000
2014-11-21 05:13:51,0.17,3.92,0.00,23.88,28.15,31.00,4.86,26.38,1023.46,2026.05,2128.52,2365.42,2564.56,349.71,348.61,28.07,0000 0000 0000 0000 000000
2014-11-21 05:18:52,0.16,3.93,0.00,23.88,28.15,30.99,4.77,26.37,1023.46,2026.04,2127.31,2364.48,2563.51,350.39,349.23,28.10,0000 0000 0000 0000 000000
2014-11-21 05:23:54,0.20,3.93,0.00,23.91,28.15,30.99,4.81,26.36,1023.46,2026.05,2125.83,2363.45,2562.51,350.10,349.06,28.13,0000 0000 0000 0000 000000
2014-11-21 05:28:55,0.19,3.94,0.00,23.92,28.16,30.96,4.92,26.43,1023.47,2026.01,2124.46,2362.33,2561.32,350.63,349.52,28.15,0000 0000 0000 0000 000000
2014-11-21 05:33:55,0.17,3.94,0.00,23.94,28.17,30.93,4.76,26.33,1023.47,2026.02,2123.19,2361.42,2560.32,349.74,348.71,28.18,0000 0000 0000 0000 000000
2014-11-21 05:38:57,0.19,3.95,0.00,23.94,28.17,30.93,4.77,26.42,1023.46,2026.02,2121.81,2360.50,2559.33,350.01,348.88,28.21,0000 0000 0000 0000 000000
2014-11-21 05:43:58,0.16,3.95,0.00,23.95,28.17,30.93,4.76,26.36,1023.46,2026.02,2120.67,2359.63,2558.61,349.43,348.30,28.24,0000 0000 0000 0000 000000
2014-11-21 05:48:59,0.18,3.96,0.00,23.97,28.17,30.92,4.75,26.27,1023.47,2026.01,2119.43,2358.66,2557.54,349.57,348.61,28.27,0000 0000 0000 0000 000000
2014-11-21 05:54:00,0.17,3.97,0.00,23.98,28.17,30.91,4.79,26.33,1023.46,2026.00,2118.11,2357.65,2556.47,350.15,349.02,28.30,0000 0000 0000 0000 000000
2014-11-21 05:59:01,0.14,3.97,0.00,24.00,28.19,30.90,4.79,26.37,1023.46,2026.00,2117.01,2356.84,2555.53,349.62,348.43,28.33,0000 0000 0000 0000 000000
2014-11-21 06:04:02,0.18,3.98,0.00,24.01,28.20,30.91,4.77,26.35,1023.47,2026.00,2115.82,2355.92,2554.55,349.96,348.89,28.36,0000 0000 0000 0000 000000
2014-11-21 06:09:03,0.18,3.98,0.00,24.05,28.20,30.90,4.82,26.39,1023.50,2026.00,2114.53,2354.96,2553.45,349.74,348.52,28.39,0000 0000 0000 0000 000000
2014-11-21 06:14:05,0.17,3.99,0.00,24.06,28.20,30.90,4.75,26.40,1023.52,2026.00,2113.25,2354.00,2552.42,349.82,348.76,28.42,0000 0000 0000 0000 000000
2014-11-21 06:19:06,0.20,3.99,0.00,24.05,28.22,30.89,4.86,26.27,1023.55,2026.00,2111.84,2353.00,2551.42,350.55,349.33,28.45,0000 0000 0000 0000 000000
2014-11-21 06:24:07,0.18,4.00,0.00,24.05,28.22,30.91,4.76,26.38,1023.66,2026.00,2110.67,2351.95,2550.26,350.05,348.73,28.48,0000 0000 0000 0000 000000
2014-11-21 06:29:09,0.19,4.00,0.00,24.08,28.22,30.93,4.81,26.39,1023.62,2025.99,2109.37,2350.91,2549.11,349.84,348.64,28.51,0000 0000 0000 0000 000000
2014-11-21 06:34:09,0.20,4.01,0.00,24.10,28.25,30.92,4.75,26.38,1023.75,2025.99,2107.91,2349.87,2548.01,350.09,348.96,28.54,0000 0000 0000 0000 000000
2014-11-21 06:39:10,0.21,4.01,0.00,24.11,28.25,30.91,4.79,26.35,1023.78,2025.99,2106.52,2348.81,2546.87,349.78,348.55,28.56,0000 0000 0000 0000 000000
2014-11-21 06:44:12,0.15,4.02,0.00,24.13,28.25,30.94,4.77,26.37,1023.85,2025.97,2105.29,2347.93,2545.84,350.04,348.83,28.59,0000 0000 0000 0000 000000
2014-11-21 06:49:13,0.15,4.03,0.00,24.16,28.27,30.93,4.79,26.36,1023.88,2025.96,2104.13,2347.03,2544.90,349.95,348.85,28.62,0000 0000 0000 0000 000000
2014-11-21 06:54:15,0.18,4.03,0.00,24.19,28.27,30.95,4.76,26.34,1023.89,2025.97,2102.89,2346.10,2543.96,349.72,348.50,28.65,0000 0000 0000 0000 000000
2014-11-21 06:59:16,0.18,4.04,0.00,24.19,28.30,30.97,4.79,26.31,1023.92,2025.96,2101.67,2345.20,2542.97,349.83,348.74,28.68,0000 0000 0000 0000 000000
2014-11-21 07:04:17,0.22,4.04,0.00,24.20,28.30,30.96,4.79,26.34,1023.94,2025.93,2100.22,2344.22,2541.67,350.46,349.33,28.71,0000 0000 0000 0000 000000
2014-11-21 07:09:18,0.18,4.05,0.00,24.24,28.31,30.97,4.74,26.22,1023.94,2025.93,2098.77,2343.16,2540.68,350.06,348.70,28.74,0000 0000 0000 0000 000000
2014-11-21 07:14:20,0.15,4.05,0.00,24.24,28.32,30.99,4.78,26.31,1023.94,2025.86,2097.54,2342.25,2539.72,349.61,348.35,28.77,0000 0000 0000 0000 000000
2014-11-21 07:19:21,0.15,4.06,0.00,24.24,28.33,31.01,4.77,26.34,1023.94,2025.78,2096.37,2341.34,2538.76,350.02,348.96,28.80,0000 0000 0000 0000 000000
2014-11-21 07:24:22,0.14,4.06,0.00,24.26,28.35,31.02,4.82,26.30,1023.94,2025.55,2095.08,2340.32,2537.72,350.02,348.73,28.83,0000 0000 0000 0000 000000
2014-11-21 07:29:24,0.19,4.07,0.00,24.27,28.36,31.04,4.76,26.36,1023.94,2025.58,2093.87,2339.49,2536.69,349.94,348.67,28.86,0000 0000 0000 0000 000000
2014-11-21 07:34:25,0.13,4.07,0.00,24.28,28.37,31.03,4.86,26.27,1023.92,2025.34,2092.65,2338.52,2535.71,350.31,348.85,28.89,0000 0000 0000 0000 000000
2014-11-21 07:39:26,0.16,4.07,0.00,24.31,28.38,31.04,4.78,26.34,1023.93,2025.11,2091.37,2337.50,2534.59,350.11,348.78,28.92,0000 0000 0000 0000 000000
2014-11-21 07:44:27,0.14,4.08,0.00,24.31,28.40,31.07,4.73,26.27,1023.94,2025.08,2090.23,2336.71,2533.70,349.62,348.34,28.95,0000 0000 0000 0000 000000
2014-11-21 07:49:28,0.16,4.08,0.00,24.31,28.41,31.04,4.81,26.34,1023.94,2025.05,2088.99,2335.81,2532.75,350.21,348.89,28.97,0000 0000 0000 0000 000000
2014-11-21 07:54:30,0.17,4.09,0.00,24.31,28.42,31.08,4.84,26.19,1023.93,2025.02,2087.80,2334.85,2531.74,350.25,348.92,29.00,0000 0000 0000 0000 000000
2014-11-21 07:59:31,0.16,4.09,0.00,24.31,28.43,31.10,4.78,26.33,1023.85,2025.01,2086.59,2333.97,2530.71,349.77,348.36,29.03,0000 0000 0000 0000 000000
2014-11-21 08:04:32,0.17,4.10,0.00,24.32,28.45,31.12,4.80,26.27,1023.78,2025.01,2085.46,2333.08,2529.78,349.59,348.31,29.06,0000 0000 0000 0000 000000
2014-11-21 08:09:34,0.15,4.10,0.00,24.33,28.46,31.14,4.74,26.23,1023.71,2025.00,2084.37,2332.20,2528.88,349.75,348.21,29.09,0000 0000 0000 0000 000000
2014-11-21 08:14:35,0.17,4.11,0.00,24.35,28.47,31.14,4.80,26.28,1023.54,2025.00,2083.14,2331.27,2527.94,349.80,348.40,29.12,0000 0000 0000 0000 000000
2014-11-21 08:19:36,0.18,4.11,0.00,24.35,28.47,31.16,4.73,26.36,1023.47,2025.00,2081.96,2330.41,2526.93,349.19,347.32,29.15,0000 0000 0000 0000 000000
2014-11-21 08:24:37,0.18,4.12,0.00,24.35,28.50,31.20,4.77,26.34,1023.45,2025.00,2080.78,2329.52,2525.93,349.65,348.13,29.18,0000 0000 0000 0000 000000
2014-11-21 08:29:39,0.16,4.12,0.00,24.35,28.50,31.18,4.82,26.27,1023.46,2024.99,2079.62,2328.65,2524.99,349.98,348.31,29.21,0000 0000 0000 0000 000000
2014-11-21 08:34:40,0.14,4.13,0.00,24.36,28.50,31.25,4.84,26.40,1023.46,2024.98,2078.51,2327.82,2524.06,350.09,348.54,29.24,0000 0000 0000 0000 000000
2014-11-21 08:39:41,0.16,4.13,0.00,24.37,28.52,31.25,4.83,26.29,1023.45,2024.98,2077.32,2326.88,2523.10,350.11,348.59,29.27,0000 0000 0000 0000 000000
2014-11-21 08:44:43,0.15,4.14,0.00,24.37,28.52,31.26,4.76,26.29,1023.46,2024.97,2076.29,2326.05,2522.13,349.85,348.29,29.30,0000 0000 0000 0000 000000
2014-11-21 08:49:44,0.16,4.14,0.00,24.40,28.53,31.24,4.80,26.32,1023.47,2024.96,2075.17,2325.22,2521.23,349.91,348.29,29.33,0000 0000 0000 0000 000000
2014-11-21 08:54:45,0.17,4.15,0.00,24.39,28.55,31.27,4.78,26.38,1023.46,2024.95,2074.08,2324.42,2520.38,349.75,348.32,29.36,0000 0000 0000 0000 000000
2014-11-21 08:59:46,0.16,4.15,0.00,24.39,28.55,31.35,4.79,26.38,1023.46,2024.97,2072.94,2323.63,2519.56,350.14,348.58,29.38,0000 0000 0000 0000 000000
2014-11-21 09:04:48,0.15,4.16,0.00,24.37,28.55,31.34,4.74,26.38,1023.48,2024.92,2071.79,2322.80,2518.58,349.66,348.20,29.41,0000 0000 0000 0000 000000
2014-11-21 09:09:49,0.16,4.16,0.00,24.39,28.56,31.32,4.80,26.41,1023.47,2024.90,2070.63,2321.95,2517.70,349.98,348.62,29.44,0000 0000 0000 0000 000000
2014-11-21 09:14:50,0.13,4.17,0.00,24.41,28.57,31.32,4.78,26.30,1023.47,2024.70,2069.52,2321.06,2516.77,350.14,348.56,29.47,0000 0000 0000 0000 000000
2014-11-21 09:19:52,0.12,4.17,0.00,24.40,28.57,31.37,4.78,26.34,1023.47,2024.58,2068.40,2320.17,2515.81,350.12,348.43,29.50,0000 0000 0000 0000 000000
2014-11-21 09:24:53,0.13,4.17,0.00,24.41,28.57,31.31,4.79,26.31,1023.47,2024.31,2067.17,2319.26,2514.86,349.74,348.15,29.53,0000 0000 0000 0000 000000
2014-11-21 09:29:54,0.19,4.18,0.00,24.38,28.59,31.39,4.85,26.33,1023.47,2024.34,2066.04,2318.44,2513.98,349.90,348.30,29.56,0000 0000 0000 0000 000000
2014-11-21 09:34:55,0.11,4.18,0.00,24.39,28.60,31.37,4.71,26.33,1023.49,2024.24,2064.96,2317.67,2513.07,349.74,348.19,29.59,0000 0000 0000 0000 000000
2014-11-21 09:39:56,0.13,4.19,0.00,24.38,28.60,31.39,4.76,26.38,1023.48,2024.13,2063.84,2316.84,2512.16,349.75,348.09,29.62,0000 0000 0000 0000 000000
2014-11-21 09:44:58,0.15,4.19,0.00,24.39,28.60,31.36,4.78,26.32,1023.47,2024.09,2062.87,2316.04,2511.25,350.05,348.61,29.65,0000 0000 0000 0000 000000
2014-11-21 09:49:59,0.18,4.20,0.00,24.38,28.60,31.37,4.82,26.20,1023.53,2024.12,2061.86,2315.25,2510.46,350.18,348.61,29.68,0000 0000 0000 0000 000000
2014-11-21 09:55:00,0.15,4.20,0.00,24.39,28.61,31.39,4.82,26.34,1023.71,2024.10,2060.82,2314.49,2509.57,350.35,348.68,29.71,0000 0000 0000 0000 000000
2014-11-21 10:00:02,0.13,4.20,0.00,24.40,28.62,31.36,4.79,26.32,1023.83,2024.10,2059.71,2313.78,2508.74,349.89,348.45,29.74,0000 0000 0000 0000 000000
2014-11-21 10:05:03,0.14,4.21,0.00,24.37,28.62,31.38,4.77,26.34,1023.86,2024.04,2058.61,2312.94,2507.82,350.23,348.84,29.77,0000 0000 0000 0000 000000
2014-11-21 10:10:05,0.15,4.21,0.00,24.38,28.62,31.36,4.80,26.34,1023.85,2024.04,2057.60,2312.07,2506.99,349.75,348.20,29.79,0000 0000 0000 0000 000000
2014-11-21 10:15:06,0.17,4.22,0.00,24.40,28.62,31.38,4.78,26.32,1023.86,2024.06,2056.56,2311.35,2506.13,349.64,348.11,29.82,0000 0000 0000 0000 000000
2014-11-21 10:20:07,0.15,4.22,0.00,24.38,28.62,31.37,4.75,26.27,1023.82,2024.03,2055.49,2310.62,2505.29,349.48,348.12,29.85,0000 0000 0000 0000 000000
2014-11-21 10:25:08,0.14,4.23,0.00,24.37,28.62,31.35,4.82,26.31,1023.88,2024.05,2054.46,2309.89,2504.51,349.58,348.13,29.88,0000 0000 0000 0000 000000
2014-11-21 10:30:09,0.15,4.23,0.00,24.37,28.62,31.36,4.90,26.38,1023.94,2024.03,2053.38,2309.06,2503.67,350.34,348.80,29.91,0000 0000 0000 0000 000000
2014-11-21 10:35:11,0.15,4.24,0.00,24.35,28.62,31.39,4.77,26.31,1023.94,2024.03,2052.39,2308.25,2502.86,350.18,348.80,29.94,0000 0000 0000 0000 000000
2014-11-21 10:40:12,0.16,4.24,0.00,24.33,28.62,31.44,4.81,26.36,1023.94,2024.04,2051.24,2307.50,2502.02,349.94,348.57,29.97,0000 0000 0000 0000 000000
2014-11-21 10:45:13,0.13,4.25,0.00,24.33,28.62,31.42,4.75,26.23,1023.95,2024.03,2050.23,2306.83,2501.13,349.87,348.65,30.00,0000 0000 0000 0000 000000
2014-11-21 10:50:15,0.15,4.25,0.00,24.18,28.62,31.48,4.79,26.38,1023.95,2024.02,2049.21,2306.03,2500.36,349.66,348.40,30.03,0000 0000 0000 0000 000000
2014-11-21 10:55:16,0.17,4.26,0.00,23.75,28.62,31.58,4.94,26.32,1023.94,2024.02,2048.11,2305.20,2499.60,350.19,349.53,30.06,0000 0000 0000 0000 000000
2014-11-21 11:00:17,0.11,4.26,0.00,23.53,28.60,31.47,4.81,26.32,1023.91,2024.03,2047.08,2304.73,2498.92,349.79,349.21,30.09,0000 0000 0000 0000 000000
2014-11-21 11:05:19,0.18,4.26,0.00,23.52,28.57,31.34,4.80,26.40,1023.80,2024.26,2046.46,2304.02,2498.09,350.14,349.52,30.12,0000 0000 0000 0000 000000
2014-11-21 11:10:19,0.24,4.27,0.00,23.52,28.53,31.32,4.79,26.27,1023.82,2024.70,2045.63,2303.43,2497.49,350.09,349.53,30.15,0000 0000 0000 0000 000000
2014-11-21 11:15:20,0.10,4.27,0.00,23.54,28.49,31.22,4.82,26.46,1023.74,2024.94,2044.76,2303.00,2496.98,349.88,349.20,30.18,0000 0000 0000 0000 000000
2014-11-21 11:20:22,0.13,4.28,0.00,23.54,28.44,31.12,4.84,26.50,1023.65,2024.99,2043.93,2302.56,2496.26,349.63,348.98,30.21,0000 0000 0000 0000 000000
2014-11-21 11:25:23,0.08,4.28,0.00,23.53,28.38,31.00,4.82,26.25,1023.58,2025.00,2043.06,2302.02,2496.00,349.87,349.32,30.23,0000 0000 0000 0000 000000
2014-11-21 11:30:24,0.16,4.28,0.00,23.55,28.32,30.90,4.83,26.23,1023.53,2025.09,2042.19,2301.61,2495.30,350.36,349.74,30.26,0000 0000 0000 0000 000000
2014-11-21 11:35:25,0.22,4.29,0.00,23.56,28.26,30.78,4.82,26.47,1023.50,2025.71,2041.44,2301.03,2494.98,349.88,349.14,30.29,0000 0000 0000 0000 000000
2014-11-21 11:40:26,0.19,4.30,0.00,23.58,28.20,30.73,4.81,26.35,1023.48,2025.93,2040.37,2300.47,2494.24,350.31,349.63,30.32,0000 0000 0000 0000 000000
2014-11-21 11:45:27,0.04,4.30,0.00,23.54,28.14,30.66,4.78,26.34,1023.46,2025.99,2039.86,2300.01,2494.00,349.80,349.22,30.35,0000 0000 0000 0000 000000
2014-11-21 11:50:29,0.10,4.30,0.00,23.57,28.07,30.64,4.83,26.53,1023.46,2026.01,2039.02,2299.84,2493.47,349.88,349.23,30.38,0000 0000 0000 0000 000000
2014-11-21 11:55:29,0.21,4.31,0.00,23.53,28.01,30.56,4.84,26.38,1023.45,2026.35,2038.14,2299.10,2493.01,350.29,349.70,30.41,0000 0000 0000 0000 000000
2014-11-21 12:00:31,0.18,4.31,0.00,23.54,27.95,30.51,4.77,26.36,1023.45,2026.92,2037.43,2298.98,2492.58,349.61,348.92,30.44,0000 0000 0000 0000 000000
2014-11-21 12:05:32,0.11,4.32,0.00,23.55,27.89,30.53,4.81,26.32,1023.45,2026.99,2036.77,2298.32,2492.02,349.90,349.44,30.47,0000 0000 0000 0000 000000
2014-11-21 12:10:33,0.07,4.32,0.00,23.56,27.83,30.49,4.81,26.38,1023.45,2027.00,2035.97,2297.99,2491.65,350.23,349.57,30.50,0000 0000 0000 0000 000000
2014-11-21 12:15:34,0.18,4.32,0.00,23.58,27.77,30.45,4.80,26.37,1023.45,2027.26,2035.16,2297.62,2491.06,350.02,349.37,30.53,0000 0000 0000 0000 000000
2014-11-21 12:20:35,0.21,4.33,0.00,23.57,27.71,30.41,4.78,26.40,1023.46,2027.90,2034.44,2297.03,2490.87,350.33,349.72,30.56,0000 0000 0000 0000 000000
2014-11-21 12:25:36,0.09,4.33,0.00,23.57,27.65,30.37,4.84,26.37,1023.45,2027.99,2033.71,2296.83,2490.08,350.45,349.64,30.59,0000 0000 0000 0000 000000
2014-11-21 12:30:37,0.10,4.34,0.00,23.57,27.60,30.32,4.74,26.30,1023.45,2027.99,2032.91,2296.06,2489.87,349.65,348.91,30.62,0000 0000 0000 0000 000000
2014-11-21 12:35:38,0.09,4.34,0.00,23.59,27.55,30.27,4.83,26.39,1023.42,2028.01,2032.06,2295.94,2489.11,349.88,349.19,30.64,0000 0000 0000 0000 000000
2014-11-21 12:40:40,0.25,4.34,0.00,23.59,27.50,30.25,4.78,26.43,1023.16,2028.37,2031.26,2295.18,2488.91,350.04,349.18,30.67,0000 0000 0000 0000 000000
2014-11-21 12:45:41,0.15,4.35,0.00,23.58,27.46,30.22,4.82,26.58,1022.99,2028.91,2030.58,2294.99,2488.14,350.06,349.18,30.70,0000 0000 0000 0000 000000
2014-11-21 12:50:42,0.10,4.35,0.00,23.57,27.41,30.19,4.73,26.48,1022.99,2028.99,2029.83,2294.29,2487.91,349.49,348.53,30.73,0000 0000 0000 0000 000000
2014-11-21 12:55:44,0.09,4.36,0.00,23.56,27.37,30.15,4.79,26.52,1022.99,2029.00,2029.01,2293.99,2487.12,349.92,349.05,30.76,0000 0000 0000 0000 000000
2014-11-21 13:00:45,0.14,4.36,0.00,23.57,27.33,30.08,4.79,26.53,1022.97,2029.05,2028.15,2293.41,2486.88,349.82,348.78,30.79,0000 0000 0000 0000 000000